Time,TemperatureF,DewpointF,PressureIn,WindDirection,WindDirectionDegrees,WindSpeedMPH,WindSpeedGustMPH,Humidity,HourlyPrecipIn,Conditions,Clouds,dailyrainin,SoftwareType,DateUTC
2013-04-08 00:03:00,46.0,43.5,29.65,SE,146,3.0,6.0,91,0.00,,,0.00,Wunderground v.1.15,2013-04-08 05:03:00,
2013-04-08 00:08:00,46.1,43.6,29.64,SE,146,4.0,6.0,91,0.00,,,0.00,Wunderground v.1.15,2013-04-08 05:08:00,
2013-04-08 00:14:00,46.1,43.6,29.64,SE,146,2.0,5.0,91,0.00,,,0.00,Wunderground v.1.15,2013-04-08 05:14:00,
2013-04-08 00:22:00,45.9,43.4,29.64,SSE,147,3.0,3.0,91,0.00,,,0.00,Wunderground v.1.15,2013-04-08 05:22:00,
2013-04-08 00:27:00,45.9,43.4,29.64,SE,146,3.0,4.0,91,0.00,,,0.00,Wunderground v.1.15,2013-04-08 05:27:00,
2013-04-08 00:32:00,45.8,43.3,29.63,SE,146,2.0,3.0,91,0.00,,,0.00,Wunderground v.1.15,2013-04-08 05:32:00,
2013-04-08 00:38:00,45.6,43.1,29.63,SE,146,2.0,3.0,91,0.00,,,0.00,Wunderground v.1.15,2013-04-08 05:38:00,
2013-04-08 00:43:00,45.6,43.1,29.63,SE,146,3.0,3.0,91,0.00,,,0.00,Wunderground v.1.15,2013-04-08 05:43:00,
2013-04-08 00:49:00,45.6,43.1,29.64,SE,146,3.0,3.0,91,0.00,,,0.01,Wunderground v.1.15,2013-04-08 05:49:00,
2013-04-08 00:56:00,45.6,43.1,29.63,SSE,147,3.0,5.0,91,0.10,,,0.02,Wunderground v.1.15,2013-04-08 05:56:00,
2013-04-08 01:02:00,45.6,43.1,29.63,SSE,147,0.0,3.0,91,0.05,,,0.02,Wunderground v.1.15,2013-04-08 06:02:00,
2013-04-08 01:08:00,45.7,43.2,29.64,SSE,147,1.0,3.0,91,0.00,,,0.02,Wunderground v.1.15,2013-04-08 06:08:00,
2013-04-08 01:13:00,45.4,42.9,29.64,SSE,147,4.0,4.0,91,0.00,,,0.02,Wunderground v.1.15,2013-04-08 06:13:00,
2013-04-08 01:19:00,45.4,42.9,29.64,SSE,147,1.0,4.0,91,0.00,,,0.02,Wunderground v.1.15,2013-04-08 06:19:00,
2013-04-08 01:26:00,46.0,43.5,29.64,SSE,147,0.0,3.0,91,0.00,,,0.02,Wunderground v.1.15,2013-04-08 06:26:00,
2013-04-08 01:31:00,45.9,43.4,29.64,SSE,147,0.0,1.0,91,0.00,,,0.02,Wunderground v.1.15,2013-04-08 06:31:00,
2013-04-08 01:37:00,45.8,43.3,29.64,SE,146,0.0,1.0,91,0.00,,,0.02,Wunderground v.1.15,2013-04-08 06:37:00,
2013-04-08 01:42:00,45.4,42.9,29.63,SSE,147,4.0,4.0,91,0.00,,,0.02,Wunderground v.1.15,2013-04-08 06:42:00,
2013-04-08 01:47:00,45.1,42.6,29.64,SE,146,1.0,4.0,91,0.00,,,0.02,Wunderground v.1.15,2013-04-08 06:47:00,
2013-04-08 01:52:00,44.7,42.2,29.64,SSE,147,3.0,3.0,91,0.00,,,0.02,Wunderground v.1.15,2013-04-08 06:52:00,
2013-04-08 01:58:00,44.4,41.9,29.64,SE,146,0.0,3.0,91,0.00,,,0.02,Wunderground v.1.15,2013-04-08 06:58:00,
2013-04-08 02:03:00,44.3,41.8,29.64,SSE,147,0.0,1.0,91,0.00,,,0.02,Wunderground v.1.15,2013-04-08 07:03:00,
2013-04-08 02:08:00,44.5,42.0,29.64,SSE,147,0.0,1.0,91,0.00,,,0.02,Wunderground v.1.15,2013-04-08 07:08:00,
2013-04-08 02:13:00,44.4,41.9,29.64,SSE,147,0.0,0.0,91,0.00,,,0.02,Wunderground v.1.15,2013-04-08 07:13:00,
2013-04-08 02:18:00,44.4,41.9,29.64,SSE,147,0.0,0.0,91,0.00,,,0.02,Wunderground v.1.15,2013-04-08 07:18:00,
2013-04-08 02:23:00,44.4,41.9,29.64,SSE,147,0.0,0.0,91,0.00,,,0.02,Wunderground v.1.15,2013-04-08 07:23:00,
2013-04-08 02:28:00,44.3,41.8,29.64,SSE,147,0.0,2.0,91,0.00,,,0.02,Wunderground v.1.15,2013-04-08 07:28:00,
2013-04-08 02:33:00,44.2,41.7,29.64,SE,146,0.0,0.0,91,0.00,,,0.02,Wunderground v.1.15,2013-04-08 07:33:00,
2013-04-08 02:38:00,44.0,41.5,29.63,SE,146,1.0,3.0,91,0.00,,,0.02,Wunderground v.1.15,2013-04-08 07:38:00,
2013-04-08 02:43:00,44.0,41.5,29.63,SE,146,3.0,3.0,91,0.00,,,0.02,Wunderground v.1.15,2013-04-08 07:43:00,
2013-04-08 02:48:00,43.9,41.7,29.63,SSE,147,4.0,5.0,92,0.00,,,0.02,Wunderground v.1.15,2013-04-08 07:48:00,
2013-04-08 02:53:00,43.5,41.0,29.62,SSE,147,3.0,4.0,91,0.00,,,0.02,Wunderground v.1.15,2013-04-08 07:53:00,
2013-04-08 02:58:00,43.4,40.9,29.63,SSE,147,0.0,4.0,91,0.00,,,0.02,Wunderground v.1.15,2013-04-08 07:58:00,
2013-04-08 03:03:00,43.2,41.0,29.62,SSE,147,2.0,2.0,92,0.00,,,0.02,Wunderground v.1.15,2013-04-08 08:03:00,
2013-04-08 03:08:00,42.9,40.7,29.62,SSE,147,0.0,2.0,92,0.00,,,0.02,Wunderground v.1.15,2013-04-08 08:08:00,
2013-04-08 03:13:00,42.8,40.4,29.62,SE,146,0.0,0.0,91,0.00,,,0.02,Wunderground v.1.15,2013-04-08 08:13:00,
2013-04-08 03:18:00,42.8,40.6,29.62,SSE,147,2.0,3.0,92,0.00,,,0.02,Wunderground v.1.15,2013-04-08 08:18:00,
2013-04-08 03:23:00,42.3,40.1,29.62,SSE,147,2.0,2.0,92,0.00,,,0.02,Wunderground v.1.15,2013-04-08 08:23:00,
2013-04-08 03:28:00,41.8,39.6,29.62,SE,146,2.0,3.0,92,0.00,,,0.02,Wunderground v.1.15,2013-04-08 08:28:00,
2013-04-08 03:33:00,41.2,38.8,29.61,SE,146,0.0,2.0,91,0.00,,,0.02,Wunderground v.1.15,2013-04-08 08:33:00,
2013-04-08 03:39:00,41.1,39.0,29.61,SE,146,2.0,3.0,92,0.00,,,0.02,Wunderground v.1.15,2013-04-08 08:39:00,
2013-04-08 03:44:00,40.5,38.4,29.62,SSE,147,0.0,0.0,92,0.00,,,0.02,Wunderground v.1.15,2013-04-08 08:44:00,
2013-04-08 03:49:00,40.3,37.9,29.61,SSE,147,0.0,0.0,91,0.00,,,0.02,Wunderground v.1.15,2013-04-08 08:49:00,
2013-04-08 03:54:00,40.5,38.4,29.61,SSE,147,3.0,3.0,92,0.00,,,0.02,Wunderground v.1.15,2013-04-08 08:54:00,
2013-04-08 04:00:00,40.4,38.3,29.61,SSE,147,0.0,3.0,92,0.00,,,0.02,Wunderground v.1.15,2013-04-08 09:00:00,
2013-04-08 04:05:00,39.7,37.3,29.61,SE,146,0.0,1.0,91,0.00,,,0.02,Wunderground v.1.15,2013-04-08 09:05:00,
2013-04-08 04:10:00,38.8,36.4,29.61,SSE,147,0.0,1.0,91,0.00,,,0.02,Wunderground v.1.15,2013-04-08 09:10:00,
2013-04-08 04:15:00,37.7,35.3,29.60,SE,146,0.0,0.0,91,0.00,,,0.02,Wunderground v.1.15,2013-04-08 09:15:00,
2013-04-08 04:20:00,37.2,34.8,29.60,SSE,147,0.0,0.0,91,0.00,,,0.02,Wunderground v.1.15,2013-04-08 09:20:00,
2013-04-08 04:25:00,37.0,34.6,29.60,SSE,147,0.0,0.0,91,0.00,,,0.02,Wunderground v.1.15,2013-04-08 09:25:00,
2013-04-08 04:30:00,36.8,34.7,29.60,SSE,147,0.0,0.0,92,0.00,,,0.02,Wunderground v.1.15,2013-04-08 09:30:00,
2013-04-08 04:35:00,36.6,34.5,29.60,SSE,147,0.0,0.0,92,0.00,,,0.02,Wunderground v.1.15,2013-04-08 09:35:00,
2013-04-08 04:40:00,36.5,34.4,29.60,SSE,147,0.0,0.0,92,0.00,,,0.02,Wunderground v.1.15,2013-04-08 09:40:00,
2013-04-08 04:45:00,36.4,34.3,29.60,SSE,147,0.0,0.0,92,0.00,,,0.02,Wunderground v.1.15,2013-04-08 09:45:00,
2013-04-08 04:50:00,35.9,33.5,29.60,SSE,147,0.0,0.0,91,0.00,,,0.02,Wunderground v.1.15,2013-04-08 09:50:00,
2013-04-08 04:57:00,34.5,32.1,29.60,SE,146,0.0,0.0,91,0.00,,,0.03,Wunderground v.1.15,2013-04-08 09:57:00,
2013-04-08 05:02:00,34.3,32.2,29.60,SSE,147,0.0,0.0,92,0.00,,,0.03,Wunderground v.1.15,2013-04-08 10:02:00,
2013-04-08 05:07:00,34.2,31.8,29.60,SSE,147,0.0,0.0,91,0.00,,,0.03,Wunderground v.1.15,2013-04-08 10:07:00,
2013-04-08 05:12:00,33.9,31.8,29.60,SSE,147,0.0,0.0,92,0.00,,,0.03,Wunderground v.1.15,2013-04-08 10:12:00,
2013-04-08 05:17:00,33.7,31.6,29.60,SE,146,0.0,0.0,92,0.00,,,0.03,Wunderground v.1.15,2013-04-08 10:17:00,
2013-04-08 05:22:00,33.4,31.3,29.60,SSE,147,0.0,0.0,92,0.00,,,0.03,Wunderground v.1.15,2013-04-08 10:22:00,
2013-04-08 05:28:00,33.0,30.9,29.60,SSE,147,0.0,0.0,92,0.00,,,0.03,Wunderground v.1.15,2013-04-08 10:28:00,
2013-04-08 05:33:00,32.8,30.7,29.60,SSE,147,0.0,0.0,92,0.00,,,0.03,Wunderground v.1.15,2013-04-08 10:33:00,
2013-04-08 05:38:00,32.7,30.6,29.60,SE,146,0.0,0.0,92,0.00,,,0.03,Wunderground v.1.15,2013-04-08 10:38:00,
2013-04-08 05:43:00,32.7,30.6,29.60,SSE,147,0.0,0.0,92,0.00,,,0.03,Wunderground v.1.15,2013-04-08 10:43:00,
2013-04-08 05:48:00,32.8,30.7,29.60,SE,146,0.0,0.0,92,0.00,,,0.03,Wunderground v.1.15,2013-04-08 10:48:00,
2013-04-08 05:53:00,32.8,30.7,29.60,SSE,147,0.0,0.0,92,0.00,,,0.03,Wunderground v.1.15,2013-04-08 10:53:00,
2013-04-08 05:58:00,33.2,31.1,29.61,SSE,147,1.0,1.0,92,0.00,,,0.03,Wunderground v.1.15,2013-04-08 10:58:00,
2013-04-08 06:03:00,33.8,31.7,29.61,SSE,147,0.0,0.0,92,0.00,,,0.03,Wunderground v.1.15,2013-04-08 11:03:00,
2013-04-08 06:08:00,34.4,32.3,29.61,SE,146,0.0,0.0,92,0.00,,,0.03,Wunderground v.1.15,2013-04-08 11:08:00,
2013-04-08 06:13:00,34.4,32.3,29.61,SSE,147,0.0,0.0,92,0.00,,,0.03,Wunderground v.1.15,2013-04-08 11:13:00,
2013-04-08 06:18:00,34.4,32.3,29.61,SSE,147,0.0,0.0,92,0.00,,,0.03,Wunderground v.1.15,2013-04-08 11:18:00,
2013-04-08 06:23:00,34.4,32.3,29.61,SE,146,0.0,0.0,92,0.00,,,0.03,Wunderground v.1.15,2013-04-08 11:23:00,
2013-04-08 06:28:00,34.4,32.3,29.61,SE,146,0.0,0.0,92,0.00,,,0.03,Wunderground v.1.15,2013-04-08 11:28:00,
2013-04-08 06:33:00,34.4,32.3,29.62,SSE,147,0.0,0.0,92,0.00,,,0.03,Wunderground v.1.15,2013-04-08 11:33:00,
2013-04-08 06:38:00,34.2,32.1,29.62,SSE,147,0.0,0.0,92,0.00,,,0.03,Wunderground v.1.15,2013-04-08 11:38:00,
2013-04-08 06:43:00,34.1,32.0,29.62,SE,146,0.0,0.0,92,0.00,,,0.03,Wunderground v.1.15,2013-04-08 11:43:00,
2013-04-08 06:49:00,34.1,32.0,29.63,SE,145,0.0,1.0,92,0.00,,,0.03,Wunderground v.1.15,2013-04-08 11:49:00,
2013-04-08 06:54:00,34.4,32.3,29.63,SE,145,0.0,1.0,92,0.00,,,0.03,Wunderground v.1.15,2013-04-08 11:54:00,
2013-04-08 06:59:00,34.4,32.3,29.63,SE,146,0.0,1.0,92,0.00,,,0.03,Wunderground v.1.15,2013-04-08 11:59:00,
2013-04-08 07:04:00,34.5,32.7,29.63,South,191,0.0,0.0,93,0.00,,,0.03,Wunderground v.1.15,2013-04-08 12:04:00,
2013-04-08 07:10:00,34.8,33.0,29.64,South,191,0.0,0.0,93,0.00,,,0.03,Wunderground v.1.15,2013-04-08 12:10:00,
2013-04-08 07:15:00,35.1,33.3,29.64,South,191,0.0,0.0,93,0.00,,,0.03,Wunderground v.1.15,2013-04-08 12:15:00,
2013-04-08 07:20:00,35.3,33.5,29.64,South,191,1.0,1.0,93,0.00,,,0.03,Wunderground v.1.15,2013-04-08 12:20:00,
2013-04-08 07:25:00,35.7,33.9,29.65,South,191,0.0,1.0,93,0.00,,,0.03,Wunderground v.1.15,2013-04-08 12:25:00,
2013-04-08 07:30:00,36.3,34.5,29.65,WSW,246,2.0,2.0,93,0.00,,,0.03,Wunderground v.1.15,2013-04-08 12:30:00,
2013-04-08 07:35:00,36.8,35.0,29.65,West,266,3.0,5.0,93,0.00,,,0.03,Wunderground v.1.15,2013-04-08 12:35:00,
2013-04-08 07:40:00,37.1,35.3,29.65,West,277,3.0,3.0,93,0.00,,,0.03,Wunderground v.1.15,2013-04-08 12:40:00,
2013-04-08 07:45:00,37.4,35.6,29.66,West,278,2.0,5.0,93,0.00,,,0.03,Wunderground v.1.15,2013-04-08 12:45:00,
2013-04-08 07:50:00,37.7,35.9,29.65,West,277,2.0,2.0,93,0.00,,,0.03,Wunderground v.1.15,2013-04-08 12:50:00,
2013-04-08 07:55:00,38.0,36.2,29.66,WNW,288,4.0,7.0,93,0.00,,,0.03,Wunderground v.1.15,2013-04-08 12:55:00,
2013-04-08 08:00:00,38.3,36.5,29.66,WNW,288,2.0,3.0,93,0.00,,,0.03,Wunderground v.1.15,2013-04-08 13:00:00,
2013-04-08 08:07:00,38.6,36.8,29.66,WNW,288,3.0,4.0,93,0.00,,,0.03,Wunderground v.1.15,2013-04-08 13:07:00,
2013-04-08 08:12:00,38.8,36.9,29.66,WNW,289,0.0,2.0,93,0.00,,,0.03,Wunderground v.1.15,2013-04-08 13:12:00,
2013-04-08 08:17:00,38.9,37.0,29.66,WNW,288,5.0,5.0,93,0.00,,,0.03,Wunderground v.1.15,2013-04-08 13:17:00,
2013-04-08 08:22:00,39.1,37.2,29.66,WNW,291,0.0,4.0,93,0.00,,,0.03,Wunderground v.1.15,2013-04-08 13:22:00,
2013-04-08 08:27:00,39.2,37.3,29.67,WNW,294,3.0,4.0,93,0.00,,,0.03,Wunderground v.1.15,2013-04-08 13:27:00,
2013-04-08 08:32:00,39.3,37.4,29.66,WNW,294,0.0,4.0,93,0.00,,,0.03,Wunderground v.1.15,2013-04-08 13:32:00,
2013-04-08 08:37:00,39.3,37.4,29.66,WNW,294,6.0,7.0,93,0.00,,,0.03,Wunderground v.1.15,2013-04-08 13:37:00,
2013-04-08 08:42:00,39.6,38.0,29.67,WNW,294,3.0,3.0,94,0.00,,,0.03,Wunderground v.1.15,2013-04-08 13:42:00,
2013-04-08 08:47:00,39.8,37.9,29.67,WNW,300,5.0,7.0,93,0.00,,,0.03,Wunderground v.1.15,2013-04-08 13:47:00,
2013-04-08 08:52:00,39.8,38.2,29.67,WNW,300,4.0,6.0,94,0.00,,,0.03,Wunderground v.1.15,2013-04-08 13:52:00,
2013-04-08 08:57:00,40.0,38.1,29.67,NW,313,6.0,6.0,93,0.00,,,0.03,Wunderground v.1.15,2013-04-08 13:57:00,
2013-04-08 09:02:00,40.2,38.3,29.68,WNW,302,5.0,5.0,93,0.00,,,0.03,Wunderground v.1.15,2013-04-08 14:02:00,
2013-04-08 09:07:00,40.6,38.7,29.67,WNW,302,3.0,6.0,93,0.00,,,0.03,Wunderground v.1.15,2013-04-08 14:07:00,
2013-04-08 09:12:00,40.8,38.9,29.67,WNW,302,2.0,5.0,93,0.00,,,0.03,Wunderground v.1.15,2013-04-08 14:12:00,
2013-04-08 09:17:00,40.9,39.3,29.68,WNW,302,2.0,6.0,94,0.00,,,0.03,Wunderground v.1.15,2013-04-08 14:17:00,
2013-04-08 09:22:00,40.9,39.3,29.68,WNW,302,3.0,6.0,94,0.00,,,0.03,Wunderground v.1.15,2013-04-08 14:22:00,
2013-04-08 09:27:00,41.1,39.5,29.68,NW,310,3.0,8.0,94,0.00,,,0.03,Wunderground v.1.15,2013-04-08 14:27:00,
2013-04-08 09:32:00,41.6,40.0,29.68,NW,310,4.0,6.0,94,0.00,,,0.03,Wunderground v.1.15,2013-04-08 14:32:00,
2013-04-08 09:37:00,41.8,40.2,29.68,NW,310,3.0,6.0,94,0.00,,,0.03,Wunderground v.1.15,2013-04-08 14:37:00,
2013-04-08 09:42:00,41.7,40.1,29.68,NW,310,5.0,7.0,94,0.00,,,0.03,Wunderground v.1.15,2013-04-08 14:42:00,
2013-04-08 09:47:00,42.1,40.5,29.69,NW,311,2.0,7.0,94,0.00,,,0.03,Wunderground v.1.15,2013-04-08 14:47:00,
2013-04-08 09:52:00,42.5,40.9,29.69,NW,311,5.0,6.0,94,0.00,,,0.03,Wunderground v.1.15,2013-04-08 14:52:00,
2013-04-08 09:58:00,42.6,41.0,29.69,NW,308,5.0,7.0,94,0.00,,,0.03,Wunderground v.1.15,2013-04-08 14:58:00,
2013-04-08 10:03:00,42.8,41.2,29.69,North,355,7.0,9.0,94,0.00,,,0.03,Wunderground v.1.15,2013-04-08 15:03:00,
2013-04-08 10:08:00,43.3,41.7,29.69,North,360,3.0,9.0,94,0.00,,,0.03,Wunderground v.1.15,2013-04-08 15:08:00,
2013-04-08 10:13:00,43.5,41.9,29.69,North,360,3.0,8.0,94,0.00,,,0.03,Wunderground v.1.15,2013-04-08 15:13:00,
2013-04-08 10:18:00,43.4,41.8,29.69,North,360,4.0,8.0,94,0.00,,,0.03,Wunderground v.1.15,2013-04-08 15:18:00,
2013-04-08 10:23:00,43.5,41.9,29.70,North,360,6.0,7.0,94,0.00,,,0.03,Wunderground v.1.15,2013-04-08 15:23:00,
2013-04-08 10:28:00,43.5,41.9,29.70,North,360,6.0,7.0,94,0.00,,,0.03,Wunderground v.1.15,2013-04-08 15:28:00,
2013-04-08 10:33:00,43.6,42.0,29.70,North,360,2.0,4.0,94,0.00,,,0.03,Wunderground v.1.15,2013-04-08 15:33:00,
2013-04-08 10:38:00,43.6,42.0,29.71,North,360,3.0,6.0,94,0.00,,,0.03,Wunderground v.1.15,2013-04-08 15:38:00,
2013-04-08 10:43:00,43.9,42.3,29.71,North,360,4.0,6.0,94,0.00,,,0.03,Wunderground v.1.15,2013-04-08 15:43:00,
2013-04-08 10:48:00,44.3,42.7,29.71,North,360,2.0,7.0,94,0.00,,,0.03,Wunderground v.1.15,2013-04-08 15:48:00,
2013-04-08 10:53:00,44.2,42.6,29.71,North,360,1.0,4.0,94,0.00,,,0.03,Wunderground v.1.15,2013-04-08 15:53:00,
2013-04-08 10:58:00,44.0,42.4,29.71,North,360,3.0,4.0,94,0.00,,,0.03,Wunderground v.1.15,2013-04-08 15:58:00,
2013-04-08 11:03:00,44.3,42.7,29.71,North,360,5.0,8.0,94,0.00,,,0.03,Wunderground v.1.15,2013-04-08 16:03:00,
2013-04-08 11:08:00,44.6,43.0,29.71,North,360,4.0,8.0,94,0.00,,,0.03,Wunderground v.1.15,2013-04-08 16:08:00,
2013-04-08 11:13:00,44.9,43.3,29.71,North,360,1.0,6.0,94,0.00,,,0.03,Wunderground v.1.15,2013-04-08 16:13:00,
2013-04-08 11:18:00,44.8,43.2,29.71,NNE,16,5.0,6.0,94,0.00,,,0.03,Wunderground v.1.15,2013-04-08 16:18:00,
2013-04-08 11:24:00,45.3,43.7,29.71,NNE,25,5.0,9.0,94,0.00,,,0.03,Wunderground v.1.15,2013-04-08 16:24:00,
2013-04-08 11:29:00,45.7,44.1,29.71,NNE,25,4.0,9.0,94,0.00,,,0.03,Wunderground v.1.15,2013-04-08 16:29:00,
2013-04-08 11:34:00,45.7,44.1,29.71,NNE,25,8.0,8.0,94,0.00,,,0.03,Wunderground v.1.15,2013-04-08 16:34:00,
2013-04-08 11:39:00,45.4,43.8,29.71,NNE,29,7.0,9.0,94,0.00,,,0.03,Wunderground v.1.15,2013-04-08 16:39:00,
2013-04-08 11:44:00,45.6,44.0,29.71,NNE,29,7.0,9.0,94,0.00,,,0.03,Wunderground v.1.15,2013-04-08 16:44:00,
2013-04-08 11:49:00,46.0,44.4,29.70,NNE,29,8.0,9.0,94,0.00,,,0.03,Wunderground v.1.15,2013-04-08 16:49:00,
2013-04-08 11:54:00,46.5,44.9,29.70,NNE,29,8.0,9.0,94,0.00,,,0.03,Wunderground v.1.15,2013-04-08 16:54:00,
2013-04-08 11:59:00,46.9,45.3,29.70,NNE,32,7.0,11.0,94,0.00,,,0.03,Wunderground v.1.15,2013-04-08 16:59:00,
2013-04-08 12:05:00,47.0,45.4,29.71,NE,34,2.0,7.0,94,0.00,,,0.03,Wunderground v.1.15,2013-04-08 17:05:00,
2013-04-08 12:10:00,47.2,45.6,29.71,NE,34,7.0,10.0,94,0.00,,,0.03,Wunderground v.1.15,2013-04-08 17:10:00,
2013-04-08 12:15:00,47.8,46.2,29.70,NE,34,6.0,9.0,94,0.00,,,0.03,Wunderground v.1.15,2013-04-08 17:15:00,
2013-04-08 12:20:00,48.6,47.0,29.70,NE,44,9.0,9.0,94,0.00,,,0.03,Wunderground v.1.15,2013-04-08 17:20:00,
2013-04-08 12:25:00,48.9,47.2,29.70,NE,49,8.0,13.0,94,0.00,,,0.03,Wunderground v.1.15,2013-04-08 17:25:00,
2013-04-08 12:30:00,49.2,47.5,29.70,NE,51,7.0,10.0,94,0.00,,,0.03,Wunderground v.1.15,2013-04-08 17:30:00,
2013-04-08 12:35:00,49.8,48.1,29.70,ENE,64,8.0,13.0,94,0.00,,,0.03,Wunderground v.1.15,2013-04-08 17:35:00,
2013-04-08 12:40:00,51.4,49.7,29.70,ENE,71,9.0,10.0,94,0.00,,,0.03,Wunderground v.1.15,2013-04-08 17:40:00,
2013-04-08 12:47:00,51.9,50.2,29.71,NE,56,5.0,12.0,94,0.00,,,0.03,Wunderground v.1.15,2013-04-08 17:47:00,
2013-04-08 12:52:00,52.4,50.4,29.71,ENE,65,5.0,13.0,93,0.00,,,0.03,Wunderground v.1.15,2013-04-08 17:52:00,
2013-04-08 12:57:00,52.2,50.2,29.71,ENE,60,7.0,13.0,93,0.00,,,0.03,Wunderground v.1.15,2013-04-08 17:57:00,
2013-04-08 13:02:00,51.9,49.6,29.71,ENE,67,9.0,12.0,92,0.00,,,0.03,Wunderground v.1.15,2013-04-08 18:02:00,
2013-04-08 13:07:00,52.7,49.8,29.71,East,84,8.0,13.0,90,0.00,,,0.03,Wunderground v.1.15,2013-04-08 18:07:00,
2013-04-08 13:12:00,53.0,49.2,29.71,ENE,74,11.0,13.0,87,0.00,,,0.03,Wunderground v.1.15,2013-04-08 18:12:00,
2013-04-08 13:17:00,53.2,48.8,29.72,ENE,60,8.0,13.0,85,0.00,,,0.03,Wunderground v.1.15,2013-04-08 18:17:00,
2013-04-08 13:22:00,53.1,48.1,29.72,ENE,64,9.0,11.0,83,0.00,,,0.03,Wunderground v.1.15,2013-04-08 18:22:00,
2013-04-08 13:27:00,54.6,49.2,29.72,ENE,62,12.0,13.0,82,0.00,,,0.03,Wunderground v.1.15,2013-04-08 18:27:00,
2013-04-08 13:32:00,54.7,49.0,29.72,ENE,64,8.0,9.0,81,0.00,,,0.03,Wunderground v.1.15,2013-04-08 18:32:00,
2013-04-08 13:37:00,54.9,48.8,29.71,ENE,63,12.0,13.0,80,0.00,,,0.03,Wunderground v.1.15,2013-04-08 18:37:00,
2013-04-08 13:42:00,55.1,48.7,29.71,ENE,76,5.0,9.0,79,0.00,,,0.03,Wunderground v.1.15,2013-04-08 18:42:00,
2013-04-08 13:47:00,55.4,49.0,29.72,East,84,7.0,13.0,79,0.00,,,0.03,Wunderground v.1.15,2013-04-08 18:47:00,
2013-04-08 13:52:00,55.6,48.5,29.72,NE,56,11.0,15.0,77,0.00,,,0.03,Wunderground v.1.15,2013-04-08 18:52:00,
2013-04-08 13:57:00,55.1,48.4,29.71,ENE,63,10.0,15.0,78,0.00,,,0.03,Wunderground v.1.15,2013-04-08 18:57:00,
2013-04-08 14:02:00,55.3,48.9,29.71,ENE,67,15.0,16.0,79,0.00,,,0.03,Wunderground v.1.15,2013-04-08 19:02:00,
2013-04-08 14:08:00,55.1,47.7,29.71,ENE,64,12.0,17.0,76,0.00,,,0.03,Wunderground v.1.15,2013-04-08 19:08:00,
2013-04-08 14:13:00,54.4,47.7,29.72,NE,52,14.0,16.0,78,0.00,,,0.03,Wunderground v.1.15,2013-04-08 19:13:00,
2013-04-08 14:18:00,54.9,48.5,29.72,ENE,71,10.0,16.0,79,0.00,,,0.03,Wunderground v.1.15,2013-04-08 19:18:00,
2013-04-08 14:23:00,53.6,46.9,29.72,ENE,65,13.0,15.0,78,0.00,,,0.03,Wunderground v.1.15,2013-04-08 19:23:00,
2013-04-08 14:28:00,54.1,47.7,29.73,ENE,68,8.0,17.0,79,0.00,,,0.03,Wunderground v.1.15,2013-04-08 19:28:00,
2013-04-08 14:33:00,54.0,47.3,29.73,ENE,66,8.0,13.0,78,0.00,,,0.03,Wunderground v.1.15,2013-04-08 19:33:00,
2013-04-08 14:38:00,54.0,47.3,29.74,ENE,61,13.0,15.0,78,0.00,,,0.03,Wunderground v.1.15,2013-04-08 19:38:00,
2013-04-08 14:43:00,53.6,47.2,29.73,ENE,69,8.0,14.0,79,0.00,,,0.03,Wunderground v.1.15,2013-04-08 19:43:00,
2013-04-08 14:48:00,53.7,47.7,29.73,ENE,62,13.0,17.0,80,0.00,,,0.03,Wunderground v.1.15,2013-04-08 19:48:00,
2013-04-08 14:53:00,53.6,47.2,29.73,ENE,63,12.0,13.0,79,0.00,,,0.03,Wunderground v.1.15,2013-04-08 19:53:00,
2013-04-08 14:58:00,53.2,46.5,29.73,NE,56,11.0,13.0,78,0.00,,,0.03,Wunderground v.1.15,2013-04-08 19:58:00,
2013-04-08 15:03:00,53.5,47.1,29.73,ENE,60,14.0,16.0,79,0.00,,,0.03,Wunderground v.1.15,2013-04-08 20:03:00,
2013-04-08 15:08:00,53.3,47.0,29.73,ENE,57,14.0,17.0,79,0.00,,,0.03,Wunderground v.1.15,2013-04-08 20:08:00,
2013-04-08 15:13:00,53.9,47.5,29.72,ENE,61,10.0,16.0,79,0.00,,,0.03,Wunderground v.1.15,2013-04-08 20:13:00,
2013-04-08 15:18:00,54.4,47.7,29.72,NE,56,9.0,16.0,78,0.00,,,0.03,Wunderground v.1.15,2013-04-08 20:18:00,
2013-04-08 15:23:00,54.1,47.4,29.72,NE,52,11.0,16.0,78,0.00,,,0.03,Wunderground v.1.15,2013-04-08 20:23:00,
2013-04-08 15:28:00,54.0,47.0,29.72,NE,46,15.0,16.0,77,0.00,,,0.03,Wunderground v.1.15,2013-04-08 20:28:00,
2013-04-08 15:33:00,53.8,47.1,29.73,ENE,61,9.0,15.0,78,0.00,,,0.03,Wunderground v.1.15,2013-04-08 20:33:00,
2013-04-08 15:38:00,55.0,47.9,29.73,NE,49,7.0,15.0,77,0.00,,,0.03,Wunderground v.1.15,2013-04-08 20:38:00,
2013-04-08 15:43:00,54.7,47.6,29.73,ENE,57,5.0,11.0,77,0.00,,,0.03,Wunderground v.1.15,2013-04-08 20:43:00,
2013-04-08 15:48:00,55.1,47.7,29.74,NE,48,5.0,13.0,76,0.00,,,0.03,Wunderground v.1.15,2013-04-08 20:48:00,
2013-04-08 15:53:00,55.3,48.2,29.74,NE,56,10.0,12.0,77,0.00,,,0.03,Wunderground v.1.15,2013-04-08 20:53:00,
2013-04-08 15:58:00,54.9,47.8,29.74,NE,48,10.0,13.0,77,0.00,,,0.03,Wunderground v.1.15,2013-04-08 20:58:00,
2013-04-08 16:03:00,55.0,48.3,29.73,NE,48,4.0,8.0,78,0.00,,,0.03,Wunderground v.1.15,2013-04-08 21:03:00,
2013-04-08 16:08:00,55.3,48.6,29.73,NE,53,6.0,11.0,78,0.00,,,0.03,Wunderground v.1.15,2013-04-08 21:08:00,
2013-04-08 16:13:00,55.1,48.0,29.73,NE,51,4.0,13.0,77,0.00,,,0.03,Wunderground v.1.15,2013-04-08 21:13:00,
2013-04-08 16:18:00,54.8,48.1,29.73,NE,45,5.0,13.0,78,0.00,,,0.03,Wunderground v.1.15,2013-04-08 21:18:00,
2013-04-08 16:23:00,54.6,47.9,29.73,NE,52,8.0,12.0,78,0.00,,,0.03,Wunderground v.1.15,2013-04-08 21:23:00,
2013-04-08 16:28:00,54.6,47.9,29.73,NE,48,8.0,13.0,78,0.00,,,0.03,Wunderground v.1.15,2013-04-08 21:28:00,
2013-04-08 16:33:00,54.4,47.7,29.74,NE,50,9.0,11.0,78,0.00,,,0.03,Wunderground v.1.15,2013-04-08 21:33:00,
2013-04-08 16:38:00,54.5,47.8,29.74,NE,51,9.0,11.0,78,0.00,,,0.03,Wunderground v.1.15,2013-04-08 21:38:00,
2013-04-08 16:43:00,54.4,47.7,29.74,NE,44,11.0,11.0,78,0.00,,,0.03,Wunderground v.1.15,2013-04-08 21:43:00,
2013-04-08 16:48:00,54.5,47.8,29.74,NE,45,7.0,13.0,78,0.00,,,0.03,Wunderground v.1.15,2013-04-08 21:48:00,
2013-04-08 16:53:00,55.0,48.3,29.74,NE,48,9.0,10.0,78,0.00,,,0.03,Wunderground v.1.15,2013-04-08 21:53:00,
2013-04-08 16:58:00,55.4,48.3,29.75,NE,49,5.0,12.0,77,0.00,,,0.03,Wunderground v.1.15,2013-04-08 21:58:00,
2013-04-08 17:03:00,55.6,48.2,29.75,NE,49,9.0,12.0,76,0.00,,,0.03,Wunderground v.1.15,2013-04-08 22:03:00,
2013-04-08 17:09:00,55.4,48.0,29.75,NE,45,12.0,15.0,76,0.00,,,0.03,Wunderground v.1.15,2013-04-08 22:09:00,
2013-04-08 17:14:00,55.5,48.1,29.75,NE,46,14.0,15.0,76,0.00,,,0.03,Wunderground v.1.15,2013-04-08 22:14:00,
2013-04-08 17:19:00,55.0,47.6,29.75,NE,49,7.0,15.0,76,0.00,,,0.03,Wunderground v.1.15,2013-04-08 22:19:00,
2013-04-08 17:24:00,55.1,48.0,29.75,NE,45,17.0,17.0,77,0.00,,,0.03,Wunderground v.1.15,2013-04-08 22:24:00,
2013-04-08 17:29:00,55.0,47.6,29.75,NE,45,10.0,17.0,76,0.00,,,0.03,Wunderground v.1.15,2013-04-08 22:29:00,
2013-04-08 17:34:00,54.8,47.7,29.75,NE,43,12.0,14.0,77,0.00,,,0.03,Wunderground v.1.15,2013-04-08 22:34:00,
2013-04-08 17:39:00,55.0,47.9,29.75,NE,44,9.0,17.0,77,0.00,,,0.03,Wunderground v.1.15,2013-04-08 22:39:00,
2013-04-08 17:45:00,55.1,48.0,29.75,NE,45,11.0,14.0,77,0.00,,,0.03,Wunderground v.1.15,2013-04-08 22:45:00,
2013-04-08 17:52:00,54.4,48.0,29.75,NE,38,6.0,8.0,79,0.00,,,0.03,Wunderground v.1.15,2013-04-08 22:52:00,
2013-04-08 17:57:00,53.3,47.6,29.75,NNE,31,6.0,14.0,81,0.00,,,0.03,Wunderground v.1.15,2013-04-08 22:57:00,
2013-04-08 18:02:00,52.6,47.6,29.75,NNE,30,2.0,10.0,83,0.00,,,0.03,Wunderground v.1.15,2013-04-08 23:02:00,
2013-04-08 18:07:00,52.0,47.0,29.76,NNE,30,3.0,10.0,83,0.00,,,0.03,Wunderground v.1.15,2013-04-08 23:07:00,
2013-04-08 18:12:00,51.4,46.4,29.76,NNE,29,1.0,10.0,83,0.00,,,0.03,Wunderground v.1.15,2013-04-08 23:12:00,
2013-04-08 18:17:00,50.9,46.6,29.76,NNE,29,0.0,10.0,85,0.00,,,0.03,Wunderground v.1.15,2013-04-08 23:17:00,
2013-04-08 18:22:00,50.6,46.3,29.77,NNE,31,9.0,9.0,85,0.00,,,0.03,Wunderground v.1.15,2013-04-08 23:22:00,
2013-04-08 18:27:00,50.1,45.8,29.77,NNE,29,11.0,12.0,85,0.00,,,0.03,Wunderground v.1.15,2013-04-08 23:27:00,
2013-04-08 18:32:00,49.7,45.7,29.77,NNE,32,9.0,15.0,86,0.00,,,0.03,Wunderground v.1.15,2013-04-08 23:32:00,
2013-04-08 18:37:00,49.3,45.3,29.77,NNE,30,9.0,15.0,86,0.00,,,0.03,Wunderground v.1.15,2013-04-08 23:37:00,
2013-04-08 18:42:00,49.0,45.3,29.78,NNE,28,9.0,11.0,87,0.00,,,0.03,Wunderground v.1.15,2013-04-08 23:42:00,
2013-04-08 18:47:00,48.4,44.7,29.78,NE,36,6.0,17.0,87,0.00,,,0.03,Wunderground v.1.15,2013-04-08 23:47:00,
2013-04-08 18:52:00,47.8,44.1,29.78,NNE,28,5.0,17.0,87,0.00,,,0.03,Wunderground v.1.15,2013-04-08 23:52:00,
2013-04-08 18:57:00,47.2,43.8,29.78,NNE,24,10.0,17.0,88,0.00,,,0.03,Wunderground v.1.15,2013-04-08 23:57:00,
2013-04-08 19:02:00,46.5,43.1,29.78,NNE,32,11.0,15.0,88,0.00,,,0.03,Wunderground v.1.15,2013-04-09 00:02:00,
2013-04-08 19:07:00,45.9,42.8,29.78,NNE,30,11.0,19.0,89,0.00,,,0.03,Wunderground v.1.15,2013-04-09 00:07:00,
2013-04-08 19:13:00,45.4,42.3,29.79,NNE,26,10.0,16.0,89,0.00,,,0.03,Wunderground v.1.15,2013-04-09 00:13:00,
2013-04-08 19:18:00,45.2,42.4,29.79,NNE,27,11.0,16.0,90,0.00,,,0.03,Wunderground v.1.15,2013-04-09 00:18:00,
2013-04-08 19:23:00,45.0,42.2,29.79,NNE,24,7.0,14.0,90,0.00,,,0.03,Wunderground v.1.15,2013-04-09 00:23:00,
2013-04-08 19:28:00,44.7,42.2,29.79,NNE,25,14.0,17.0,91,0.00,,,0.03,Wunderground v.1.15,2013-04-09 00:28:00,
2013-04-08 19:33:00,44.6,42.1,29.80,NNE,28,10.0,14.0,91,0.00,,,0.03,Wunderground v.1.15,2013-04-09 00:33:00,
2013-04-08 19:38:00,44.6,42.1,29.80,NNE,26,7.0,15.0,91,0.00,,,0.03,Wunderground v.1.15,2013-04-09 00:38:00,
2013-04-08 19:43:00,44.4,41.9,29.80,NNE,26,11.0,14.0,91,0.00,,,0.03,Wunderground v.1.15,2013-04-09 00:43:00,
2013-04-08 19:48:00,44.2,41.7,29.81,NNE,29,9.0,14.0,91,0.00,,,0.03,Wunderground v.1.15,2013-04-09 00:48:00,
2013-04-08 19:53:00,44.2,41.7,29.81,NE,36,14.0,14.0,91,0.00,,,0.03,Wunderground v.1.15,2013-04-09 00:53:00,
2013-04-08 19:58:00,44.1,41.6,29.81,NNE,24,9.0,18.0,91,0.00,,,0.03,Wunderground v.1.15,2013-04-09 00:58:00,
2013-04-08 20:03:00,44.1,41.9,29.82,NE,42,18.0,18.0,92,0.00,,,0.03,Wunderground v.1.15,2013-04-09 01:03:00,
2013-04-08 20:08:00,44.1,41.9,29.82,NE,35,10.0,18.0,92,0.00,,,0.03,Wunderground v.1.15,2013-04-09 01:08:00,
2013-04-08 20:13:00,43.9,41.7,29.82,NE,48,9.0,15.0,92,0.00,,,0.03,Wunderground v.1.15,2013-04-09 01:13:00,
2013-04-08 20:18:00,43.9,41.7,29.82,NE,48,13.0,17.0,92,0.00,,,0.03,Wunderground v.1.15,2013-04-09 01:18:00,
2013-04-08 20:24:00,43.8,41.6,29.82,NE,48,17.0,17.0,92,0.00,,,0.03,Wunderground v.1.15,2013-04-09 01:24:00,
2013-04-08 20:29:00,43.7,41.5,29.82,NE,38,10.0,20.0,92,0.00,,,0.03,Wunderground v.1.15,2013-04-09 01:29:00,
2013-04-08 20:34:00,43.6,41.4,29.82,NE,41,13.0,20.0,92,0.00,,,0.03,Wunderground v.1.15,2013-04-09 01:34:00,
2013-04-08 20:39:00,43.5,41.3,29.82,NNE,29,8.0,21.0,92,0.00,,,0.03,Wunderground v.1.15,2013-04-09 01:39:00,
2013-04-08 20:44:00,43.3,41.1,29.83,NNE,25,11.0,14.0,92,0.00,,,0.03,Wunderground v.1.15,2013-04-09 01:44:00,
2013-04-08 20:49:00,43.3,41.1,29.84,NE,38,11.0,15.0,92,0.00,,,0.03,Wunderground v.1.15,2013-04-09 01:49:00,
2013-04-08 20:55:00,43.2,41.0,29.84,NE,36,14.0,14.0,92,0.00,,,0.03,Wunderground v.1.15,2013-04-09 01:55:00,
2013-04-08 21:00:00,43.1,40.9,29.84,NE,46,13.0,21.0,92,0.00,,,0.03,Wunderground v.1.15,2013-04-09 02:00:00,
2013-04-08 21:05:00,42.8,40.6,29.84,NE,44,15.0,22.0,92,0.00,,,0.03,Wunderground v.1.15,2013-04-09 02:05:00,
2013-04-08 21:10:00,42.7,40.5,29.84,NE,45,13.0,22.0,92,0.00,,,0.03,Wunderground v.1.15,2013-04-09 02:10:00,
2013-04-08 21:15:00,42.5,40.3,29.84,NNE,31,13.0,16.0,92,0.00,,,0.03,Wunderground v.1.15,2013-04-09 02:15:00,
2013-04-08 21:22:00,42.4,40.2,29.85,NE,36,12.0,15.0,92,0.00,,,0.03,Wunderground v.1.15,2013-04-09 02:22:00,
2013-04-08 21:27:00,42.3,40.1,29.85,NNE,28,11.0,17.0,92,0.00,,,0.03,Wunderground v.1.15,2013-04-09 02:27:00,
2013-04-08 21:32:00,42.0,39.8,29.85,NE,40,18.0,18.0,92,0.00,,,0.03,Wunderground v.1.15,2013-04-09 02:32:00,
2013-04-08 21:37:00,41.9,39.7,29.86,NE,45,12.0,18.0,92,0.00,,,0.03,Wunderground v.1.15,2013-04-09 02:37:00,
2013-04-08 21:42:00,41.9,39.7,29.86,NE,45,15.0,15.0,92,0.00,,,0.03,Wunderground v.1.15,2013-04-09 02:42:00,
2013-04-08 21:48:00,41.6,39.4,29.87,NE,51,18.0,22.0,92,0.00,,,0.03,Wunderground v.1.15,2013-04-09 02:48:00,
2013-04-08 21:53:00,41.5,39.3,29.87,NE,40,17.0,21.0,92,0.00,,,0.03,Wunderground v.1.15,2013-04-09 02:53:00,
2013-04-08 21:58:00,41.4,39.3,29.87,NE,44,14.0,21.0,92,0.00,,,0.03,Wunderground v.1.15,2013-04-09 02:58:00,
2013-04-08 22:03:00,41.3,39.2,29.88,NE,44,8.0,16.0,92,0.00,,,0.03,Wunderground v.1.15,2013-04-09 03:03:00,
2013-04-08 22:08:00,41.2,39.1,29.88,NE,42,11.0,21.0,92,0.00,,,0.03,Wunderground v.1.15,2013-04-09 03:08:00,
2013-04-08 22:13:00,41.1,39.0,29.88,NE,44,14.0,20.0,92,0.00,,,0.03,Wunderground v.1.15,2013-04-09 03:13:00,
2013-04-08 22:18:00,41.1,39.0,29.89,NE,46,11.0,20.0,92,0.00,,,0.03,Wunderground v.1.15,2013-04-09 03:18:00,
2013-04-08 22:23:00,41.1,39.0,29.89,NE,50,11.0,19.0,92,0.00,,,0.03,Wunderground v.1.15,2013-04-09 03:23:00,
2013-04-08 22:28:00,41.0,38.9,29.89,NE,50,13.0,22.0,92,0.00,,,0.03,Wunderground v.1.15,2013-04-09 03:28:00,
2013-04-08 22:33:00,41.0,38.9,29.90,NE,39,18.0,25.0,92,0.00,,,0.03,Wunderground v.1.15,2013-04-09 03:33:00,
2013-04-08 22:38:00,40.9,38.8,29.90,NE,45,14.0,25.0,92,0.00,,,0.03,Wunderground v.1.15,2013-04-09 03:38:00,
2013-04-08 22:43:00,40.8,38.7,29.90,NE,47,17.0,19.0,92,0.00,,,0.03,Wunderground v.1.15,2013-04-09 03:43:00,
2013-04-08 22:48:00,40.8,38.7,29.90,NE,46,18.0,19.0,92,0.00,,,0.03,Wunderground v.1.15,2013-04-09 03:48:00,
2013-04-08 22:53:00,40.7,38.6,29.90,NE,36,8.0,21.0,92,0.00,,,0.03,Wunderground v.1.15,2013-04-09 03:53:00,
2013-04-08 22:58:00,40.6,38.5,29.90,NE,41,16.0,21.0,92,0.00,,,0.03,Wunderground v.1.15,2013-04-09 03:58:00,
2013-04-08 23:00:00,40.5,38.4,29.90,NE,50,17.0,17.0,92,0.00,,,0.03,Wunderground v.1.15,2013-04-09 04:00:00,
2013-04-08 23:02:00,40.5,38.4,29.90,NE,47,12.0,17.0,92,0.00,,,0.03,Wunderground v.1.15,2013-04-09 04:02:00,
2013-04-08 23:07:00,40.4,38.3,29.90,NE,42,11.0,17.0,92,0.00,,,0.03,Wunderground v.1.15,2013-04-09 04:07:00,
2013-04-08 23:12:00,40.3,38.2,29.89,ENE,58,16.0,20.0,92,0.00,,,0.03,Wunderground v.1.15,2013-04-09 04:12:00,
2013-04-08 23:17:00,40.2,38.1,29.89,NE,42,15.0,21.0,92,0.00,,,0.03,Wunderground v.1.15,2013-04-09 04:17:00,
2013-04-08 23:22:00,40.1,38.0,29.90,ENE,61,14.0,17.0,92,0.00,,,0.03,Wunderground v.1.15,2013-04-09 04:22:00,
2013-04-08 23:27:00,40.0,37.9,29.89,NE,42,16.0,20.0,92,0.00,,,0.03,Wunderground v.1.15,2013-04-09 04:27:00,
2013-04-08 23:32:00,39.9,37.8,29.89,NE,49,16.0,17.0,92,0.00,,,0.03,Wunderground v.1.15,2013-04-09 04:32:00,
2013-04-08 23:37:00,39.8,37.7,29.89,NE,36,9.0,25.0,92,0.00,,,0.03,Wunderground v.1.15,2013-04-09 04:37:00,
2013-04-08 23:42:00,39.8,37.9,29.88,NE,48,19.0,21.0,93,0.00,,,0.03,Wunderground v.1.15,2013-04-09 04:42:00,
2013-04-08 23:47:00,39.8,37.9,29.88,NE,52,12.0,22.0,93,0.00,,,0.03,Wunderground v.1.15,2013-04-09 04:47:00,
2013-04-08 23:52:00,39.7,37.8,29.88,NE,55,17.0,22.0,93,0.00,,,0.03,Wunderground v.1.15,2013-04-09 04:52:00,
2013-04-08 23:57:00,39.6,37.5,29.88,NE,34,12.0,23.0,92,0.00,,,0.03,Wunderground v.1.15,2013-04-09 04:57:00,